Eindhoven, Netherlands

2:05 PM CEST on August 27, 2016 (GMT +0200)
Eindhoven Air Base

Weather History for EHEH - May, 2014

Change the Weather History Date:

Saturday, May 31, 2014

  Actual Average Record
Temperature  
Mean Temperature 55 °F -  
Max Temperature 69 °F 69 °F 78 °F (2003)
Min Temperature 41 °F 50 °F 39 °F (2006)
Degree Days  
Heating Degree Days 10    
Growing Degree Days 5 (Base 50)    
Moisture  
Dew Point 46 °F    
Average Humidity 77    
Maximum Humidity 100    
Minimum Humidity 35    
Precipitation  
Precipitation 0.00 in - - ()
Sea Level Pressure  
Sea Level Pressure 30.20 in    
Wind  
Wind Speed 3 mph ()    
Max Wind Speed 13 mph    
Max Gust Speed -    
Visibility 5.9 miles    
Events      
Averages and records for this station are not official NWS values.
T = Trace of Precipitation, MM = Missing Value Source: Averaged Metar Reports

Daily Weather History Graph

Daily Weather History Graph

Search for Another Location

Airport or City:

Trip Planner

Search our weather history database for the weather conditions in past years. The results will help you decide how hot, cold, wet, or windy it might be!

Date:

Astronomy

May. 31, 2014 Rise Set
Actual Time 5:28 AM CEST 9:44 PM CEST
Civil Twilight 4:43 AM CEST 10:30 PM CEST
Nautical Twilight 3:37 AM CEST 11:36 PM CEST
Astronomical Twilight 2:08 AM CEST 1:03 AM CEST
Moon 8:00 AM CEST (5/31) 11:40 PM CEST (5/31)
Length of Visible Light 17h 46m
Length of Day
16h 16m
Waxing Crescent, 7% of the Moon is Illuminated
May 31
Waxing Crescent
Jun 5
First Quarter
Jun 13
Full
Jun 19
Last Quarter
Jun 27
New

Hourly Weather History & Observations

Time (CEST) Temp. Dew Point Humidity Pressure Visibility Wind Dir Wind Speed Gust Speed Precip Events Conditions
12:00 AM 47 °F 44 °F 86% 30.23 in 11 mi Calm Calm - -   Scattered Clouds
12:14 AM 46.4 °F 44.6 °F 93% 30.21 in 6.2 mi NNW 2.3 mph - N/A   Unknown
12:25 AM 46.4 °F 44.6 °F 93% 30.21 in 6.2 mi North 2.3 mph - N/A   Unknown
12:55 AM 46.4 °F 46.4 °F 100% 30.21 in 6.2 mi NNE 2.3 mph - N/A   Unknown
1:00 AM 47 °F 44 °F 87% 30.24 in 9 mi NNE 2.2 mph - -  
1:25 AM 46.4 °F 44.6 °F 93% 30.21 in 6.2 mi North 2.3 mph - N/A   Unknown
1:55 AM 44.6 °F 42.8 °F 93% 30.21 in 6.2 mi Calm Calm - N/A   Unknown
2:00 AM 44 °F 43 °F 97% 30.24 in 6 mi Calm Calm - -   Partly Cloudy
2:13 AM 44.6 °F 42.8 °F 93% 30.21 in 4.3 mi SW 2.3 mph - N/A   Mist
2:14 AM 44.6 °F 44.6 °F 100% 30.21 in 5.0 mi SW 2.3 mph - N/A   Mist
2:21 AM 44.6 °F 44.6 °F 100% 30.21 in 4.3 mi SW 2.3 mph - N/A   Mist
2:25 AM 44.6 °F 44.6 °F 100% 30.21 in 4.3 mi SW 2.3 mph - N/A   Mist
2:30 AM 44.6 °F 42.8 °F 93% 30.21 in 5.0 mi WSW 2.3 mph - N/A   Mist
2:38 AM 44.6 °F 44.6 °F 100% 30.21 in 4.3 mi WNW 2.3 mph - N/A   Mist
2:55 AM 42.8 °F 42.8 °F 100% 30.21 in 4.3 mi NE 1.2 mph - N/A   Mist
3:00 AM 43 °F 42 °F 97% 30.23 in 4 mi Calm Calm - -   Mist
3:25 AM 42.8 °F 41.0 °F 93% 30.21 in 3.7 mi SW 2.3 mph - N/A   Mist
3:55 AM 42.8 °F 42.8 °F 100% 30.21 in 3.1 mi SW 2.3 mph - N/A   Mist
4:00 AM 42 °F 42 °F 100% 30.23 in 3 mi WSW 2.2 mph - -   Mist
4:06 AM 42.8 °F 42.8 °F 100% 30.21 in 5.0 mi WSW 2.3 mph - N/A   Mist
4:08 AM 42.8 °F 42.8 °F 100% 30.21 in 4.3 mi WSW 2.3 mph - N/A   Mist
4:21 AM 42.8 °F 42.8 °F 100% 30.21 in 5.6 mi WSW 1.2 mph - N/A   Mist
4:25 AM 42.8 °F 42.8 °F 100% 30.21 in 3.1 mi WSW 1.2 mph - N/A   Mist
4:28 AM 42.8 °F 42.8 °F 100% 30.21 in 5.0 mi WSW 2.3 mph - N/A   Mist
4:37 AM 41.0 °F 41.0 °F 100% 30.21 in 3.7 mi West 1.2 mph - N/A   Mist
4:43 AM 41.0 °F 41.0 °F 100% 30.21 in - WNW 1.2 mph - N/A   Mist
4:48 AM 41.0 °F 41.0 °F 100% 30.21 in 1.9 mi Calm Calm - N/A   Mist
4:55 AM 41.0 °F 41.0 °F 100% 30.21 in - Calm Calm - N/A   Mist
4:59 AM 41.0 °F 41.0 °F 100% 30.21 in 2.8 mi Calm Calm - N/A   Mist
5:00 AM 42 °F 42 °F 99% 30.22 in 3 mi Calm Calm - -   Mist
5:03 AM 42.8 °F 42.8 °F 100% 30.21 in 3.1 mi North 1.2 mph - N/A   Mist
5:07 AM 42.8 °F 41.0 °F 93% 30.21 in - North 1.2 mph - N/A   Mist
5:09 AM 41.0 °F 41.0 °F 100% 30.21 in 3.1 mi North 1.2 mph - N/A   Mist
5:15 AM 41.0 °F 41.0 °F 100% 30.21 in - North 1.2 mph - N/A   Mist
5:19 AM 41.0 °F 41.0 °F 100% 30.21 in 2.5 mi North 1.2 mph - N/A   Mist
5:25 AM 41.0 °F 41.0 °F 100% 30.21 in 3.7 mi North 1.2 mph - N/A   Mist
5:38 AM 41.0 °F 41.0 °F 100% 30.21 in 3.1 mi NNW 1.2 mph - N/A   Mist
5:43 AM 41.0 °F 41.0 °F 100% 30.21 in - NNW 2.3 mph - N/A   Partly Cloudy
5:55 AM 42.8 °F 41.0 °F 93% 30.21 in 2.5 mi NNE 2.3 mph - N/A   Partly Cloudy
5:59 AM 42.8 °F 42.8 °F 100% 30.21 in - NNE 2.3 mph - N/A   Mist
6:00 AM 42 °F 42 °F 99% 30.22 in 2 mi North 2.2 mph - -   Mist
6:03 AM 42.8 °F 42.8 °F 100% 30.21 in 2.5 mi North 2.3 mph - N/A   Mist
6:16 AM 42.8 °F 41.0 °F 93% 30.21 in 3.1 mi North 2.3 mph - N/A   Mist
6:25 AM 42.8 °F 42.8 °F 100% 30.21 in 5.0 mi North 2.3 mph - N/A   Mist
6:38 AM 44.6 °F 44.6 °F 100% 30.21 in 5.0 mi NNW 2.3 mph - N/A   Mist
6:42 AM 44.6 °F 44.6 °F 100% 30.21 in 3.7 mi North 2.3 mph - N/A   Mist
6:55 AM 46.4 °F 46.4 °F 100% 30.21 in 3.7 mi North 1.2 mph - N/A   Partly Cloudy
6:59 AM 46.4 °F 46.4 °F 100% 30.21 in - North 1.2 mph - N/A   Partly Cloudy
7:00 AM 47 °F 47 °F 99% 30.23 in 3 mi North 2.2 mph - -   Mist
7:10 AM 48.2 °F 46.4 °F 93% 30.21 in 1.8 mi North 2.3 mph - N/A   Mist
7:19 AM 50.0 °F 48.2 °F 94% 30.21 in - North 2.3 mph - N/A   Mist
7:25 AM 50.0 °F 48.2 °F 94% 30.21 in - NNE 2.3 mph - N/A   Mist
7:26 AM 50.0 °F 48.2 °F 94% 30.21 in - NNE 2.3 mph - N/A   Mist
7:31 AM 50.0 °F 48.2 °F 94% 30.21 in 3.1 mi NNE 2.3 mph - N/A   Mist
7:41 AM 51.8 °F 50.0 °F 94% 30.21 in 3.7 mi NNE 3.5 mph - N/A   Mist
7:55 AM 53.6 °F 50.0 °F 88% 30.21 in 4.3 mi NNE 3.5 mph - N/A   Partly Cloudy
7:59 AM 53.6 °F 50.0 °F 88% 30.21 in 5.0 mi NE 3.5 mph - N/A   Partly Cloudy
8:00 AM 54 °F 50 °F 81% 30.23 in 5 mi NE 4.5 mph - -   Mist
8:12 AM 55.4 °F 50.0 °F 82% 30.21 in 5.6 mi ENE 4.6 mph - N/A   Mist
8:25 AM 55.4 °F 50.0 °F 82% 30.21 in 6.2 mi East 3.5 mph - N/A   Unknown
8:30 AM 57.2 °F 50.0 °F 77% 30.21 in 6.2 mi East 3.5 mph - N/A   Unknown
8:55 AM 59.0 °F 50.0 °F 72% 30.21 in 6.2 mi ENE 2.3 mph - N/A   Unknown
9:00 AM 59 °F 50 °F 63% 30.24 in 8 mi NE 2.2 mph - -   Scattered Clouds
9:25 AM 60.8 °F 48.2 °F 63% 30.21 in 6.2 mi ENE 2.3 mph - N/A   Unknown
9:49 AM 60.8 °F 48.2 °F 63% 30.21 in 6.2 mi North 2.3 mph - N/A   Unknown
9:55 AM 62.6 °F 48.2 °F 59% 30.21 in 6.2 mi North 2.3 mph - N/A   Unknown
10:00 AM 62 °F 49 °F 53% 30.24 in 14 mi 2.2 mph - -  
10:10 AM 60.8 °F 46.4 °F 59% 30.21 in 6.2 mi NE 3.5 mph - N/A   Unknown
10:25 AM 60.8 °F 48.2 °F 63% 30.21 in 6.2 mi ENE 1.2 mph - N/A   Partly Cloudy
10:55 AM 62.6 °F 48.2 °F 59% 30.21 in 6.2 mi WNW 2.3 mph - N/A   Mostly Cloudy
10:59 AM 62.6 °F 48.2 °F 59% 30.21 in 6.2 mi NNW 2.3 mph - N/A   Overcast
11:00 AM 63 °F 46 °F 44% 30.24 in 14 mi NNW 2.2 mph - -   Partly Cloudy
11:25 AM 64.4 °F 46.4 °F 52% 30.21 in 6.2 mi SSE 3.5 mph - N/A   Mostly Cloudy
11:55 AM 66.2 °F 48.2 °F 52% 30.21 in 6.2 mi ESE 2.3 mph - N/A   Scattered Clouds
12:00 PM 67 °F 48 °F 39% 30.23 in 17 mi 2.2 mph - -   Partly Cloudy
12:25 PM 66.2 °F 46.4 °F 49% 30.21 in 6.2 mi NE 4.6 mph - N/A   Mostly Cloudy
12:55 PM 66.2 °F 46.4 °F 49% 30.21 in 6.2 mi NNE 3.5 mph - N/A   Scattered Clouds
1:00 PM 67 °F 46 °F 36% 30.22 in 19 mi West 4.5 mph - -   Scattered Clouds
1:25 PM 64.4 °F 44.6 °F 49% 30.21 in 6.2 mi West 3.5 mph - N/A   Overcast
1:34 PM 66.2 °F 46.4 °F 49% 30.21 in 6.2 mi NNW 6.9 mph - N/A   Scattered Clouds
1:55 PM 66.2 °F 46.4 °F 49% 30.18 in 6.2 mi NNW 4.6 mph - N/A   Mostly Cloudy
2:00 PM 66 °F 45 °F 35% 30.21 in 22 mi North 4.5 mph - -   Partly Cloudy
2:25 PM 66.2 °F 44.6 °F 46% 30.18 in 6.2 mi North 4.6 mph - N/A   Overcast
2:55 PM 68.0 °F 48.2 °F 49% 30.18 in 6.2 mi WNW 5.8 mph - N/A   Overcast
3:00 PM 68 °F 47 °F 36% 30.20 in 22 mi West 6.7 mph - -   Mostly Cloudy
3:25 PM 68.0 °F 46.4 °F 46% 30.18 in 6.2 mi NW 6.9 mph - N/A   Overcast
3:55 PM 66.2 °F 46.4 °F 49% 30.18 in 6.2 mi NNE 6.9 mph - N/A   Overcast
4:00 PM 66 °F 47 °F 39% 30.20 in 19 mi NNE 6.7 mph - -   Mostly Cloudy
4:25 PM 68.0 °F 48.2 °F 49% 30.18 in 6.2 mi NNW 4.6 mph - N/A   Overcast
4:55 PM 68.0 °F 46.4 °F 46% 30.18 in 6.2 mi West 3.5 mph - N/A   Overcast
5:00 PM 67 °F 47 °F 38% 30.19 in 19 mi WNW 4.5 mph - -   Overcast
5:25 PM 68.0 °F 46.4 °F 46% 30.18 in 6.2 mi NNW 6.9 mph - N/A   Overcast
5:55 PM 66.2 °F 46.4 °F 49% 30.15 in 6.2 mi NNW 5.8 mph - N/A   Mostly Cloudy
6:00 PM 66 °F 46 °F 37% 30.18 in 22 mi NNW 6.7 mph - -   Mostly Cloudy
6:25 PM 66.2 °F 46.4 °F 49% 30.15 in 6.2 mi North 6.9 mph - N/A   Overcast
6:55 PM 66.2 °F 46.4 °F 49% 30.15 in 6.2 mi NNW 6.9 mph - N/A   Overcast
7:00 PM 66 °F 45 °F 36% 30.18 in 25 mi NNW 6.7 mph - -   Overcast
7:25 PM 66.2 °F 44.6 °F 46% 30.15 in 6.2 mi NNW 6.9 mph - N/A   Overcast
7:55 PM 62.6 °F 48.2 °F 59% 30.18 in 6.2 mi NNW 11.5 mph - N/A   Partly Cloudy
8:00 PM 62 °F 48 °F 50% 30.19 in 22 mi NW 11.2 mph - -   Partly Cloudy
8:25 PM 62.6 °F 48.2 °F 59% 30.18 in 6.2 mi NNW 12.7 mph - N/A   Overcast
8:30 PM 60.8 °F 48.2 °F 63% 30.18 in 6.2 mi NNW 11.5 mph - N/A   Mostly Cloudy
8:55 PM 60.8 °F 48.2 °F 63% 30.18 in 6.2 mi North 10.4 mph - N/A   Mostly Cloudy
9:00 PM 60 °F 48 °F 55% 30.19 in 25 mi North 11.2 mph - -   Scattered Clouds
9:21 PM 59.0 °F 48.2 °F 67% 30.18 in 6.2 mi North 6.9 mph - N/A   Partly Cloudy
9:25 PM 59.0 °F 48.2 °F 67% 30.18 in 6.2 mi North 6.9 mph - N/A   Partly Cloudy
9:55 PM 59.0 °F 48.2 °F 67% 30.18 in 6.2 mi North 9.2 mph - N/A   Partly Cloudy
10:00 PM 58 °F 48 °F 61% 30.20 in 22 mi North 8.9 mph - -   Partly Cloudy
10:25 PM 57.2 °F 48.2 °F 72% 30.18 in 6.2 mi North 6.9 mph - N/A   Mostly Cloudy
10:55 PM 55.4 °F 48.2 °F 77% 30.18 in 6.2 mi NW 4.6 mph - N/A   Overcast
11:00 PM 55 °F 48 °F 70% 30.21 in 22 mi NW 4.5 mph - -   Mostly Cloudy
11:25 PM 53.6 °F 48.2 °F 82% 30.18 in 6.2 mi NW 3.5 mph - N/A   Mostly Cloudy
11:26 PM 53.6 °F 48.2 °F 82% 30.18 in 6.2 mi NW 3.5 mph - N/A   Scattered Clouds
11:55 PM 53.6 °F 48.2 °F 82% 30.21 in 6.2 mi NNW 4.6 mph - N/A   Overcast